Regional Weather Roundup
Issued by NWS Jackson, KY

Home | Current Version | Previous Version | Graphics & Text | Print | Product List | Glossary On
Versions: 1 2 3 4 5 6 7 8 9 10 11 12 13 14 15 16 17 18 19 20 21 22 23 24 25 26 27 28 29 30 31 32 33 34 35 36 37 38 39 40 41 42 43 44 45 46 47 48 49 50
000
ASUS43 KJKL 250011
RWRJKL

EAST KENTUCKY HOURLY WEATHER ROUNDUP
NATIONAL WEATHER SERVICE JACKSON KY
700 PM EST SAT JAN 24 2015

NOTE: "FAIR" INDICATES FEW OR NO CLOUDS BELOW 12,000 FEET WITH
NO SIGNIFICANT WEATHER AND/OR OBSTRUCTIONS TO VISIBILITY.

* THESE REPORTS ARE NOT UNDER NWS QUALITY CONTROL AND MAY NOT
  REPORT WEATHER SUCH AS PRECIPITATION AND FOG.

KYZ079-080-083-085-087-088-110-112-115-119-120-250100
...EASTERN KENTUCKY...

CITY           SKY/WX    TMP DP  RH WIND       PRES   REMARKS
JACKSON        CLOUDY    33  29  85 VRB6      29.81R WCI  28
6HR MIN TEMP:  31; 6HR MAX TEMP:  34;

LONDON         CLEAR     37  28  70 W6        29.85R WCI  32
6HR MIN TEMP:  32; 6HR MAX TEMP:  40;

SOMERSET*      CLEAR     34  30  86 SW5       29.87R WCI  30
MONTICELLO*    CLEAR     37  32  82 SW7       29.89R WCI  31
6HR MIN TEMP:  34; 6HR MAX TEMP:  42;

MIDDLESBORO*   CLEAR     37  28  70 W3        29.85R
6HR MIN TEMP:  36; 6HR MAX TEMP:  42;

HARLAN APT*    CLOUDY    36  27  69 W6        29.83R WCI  31
HAZARD APT*    CLOUDY    37  32  81 W7        29.83  WCI  32
BLACK MTN*       N/A     27  25  93 SW5         N/A  WCI  21
PIKEVILLE APT* CLOUDY    34  28  80 W13G23    29.80R WCI  25
BIG SANDY*     CLOUDY    35  30  82 W12G17    29.80R WCI  27
6HR MIN TEMP:  30; 6HR MAX TEMP:  36;

MOREHEAD APT*  CLOUDY    36  30  80 W9        29.82R WCI  29
$$

KYZ035-036-041-042-044-050-067-078-099-250100
...CENTRAL KENTUCKY...

CITY           SKY/WX    TMP DP  RH WIND       PRES   REMARKS
MT STERLING*   MOCLDY    34  32  93 W13       29.83R WCI  25
FLEMING/MASON* MOCLDY    32  29  90 SW10G16   29.81R WCI  24
DANVILLE*      CLEAR     34  32  93 W3        29.84R
RICHMOND*      MOCLDY    34  32  93 S6        29.83R WCI  29
LEXINGTON      CLEAR     32  28  85 SW7       29.82R WCI  26
6HR MIN TEMP:  32; 6HR MAX TEMP:  35;

FRANKFORT      CLEAR     34  29  82 SW8       29.81R WCI  27
6HR MIN TEMP:  33; 6HR MAX TEMP:  36;

$$

KYZ091>093-OHZ055-061-077-WVZ005-015-034-035-042-250100
...SOUTHERN OHIO/WEST VIRGINIA...

CITY           SKY/WX    TMP DP  RH WIND       PRES   REMARKS
COVINGTON      PTCLDY    35  26  69 SW7       29.78R WCI  29
COLUMBUS       CLOUDY    34  28  80 W14       29.73R WCI  24
DAYTON         CLOUDY    34  29  82 SW8       29.75R WCI  27
WILMINGTON     CLEAR     33  26  75 W10       29.75R WCI  25
HUNTINGTON     CLOUDY    33  30  88 SW7       29.77R WCI  27
CHARLESTON     CLOUDY    33  27  78 SW7       29.76R WCI  27
PINEVILLE*     CLOUDY    34  31  91 MISG      29.80R
BECKLEY        CLOUDY    29  22  75 W14G22    29.69R WCI  18
BLUEFIELD      CLOUDY    30  22  72 W12G20    29.69R WCI  20
$$

VAZ002-007-008-TNZ017-027-036-066-071-250100
...SOUTHWEST VIRGINIA/EAST TENNESSEE...

CITY           SKY/WX    TMP DP  RH WIND       PRES   REMARKS
WISE*          CLOUDY    32  25  74 SW8       29.77R WCI  25
JONESVILLE*    PTCLDY    32  27  80 CALM      29.85R
ABINGDON*      CLEAR     33  27  80 W6        29.78R WCI  27
BRISTOL        PTCLDY    33  28  81 SW8       29.83R WCI  26
KNOXVILLE      CLEAR     38  26  62 SW12      29.89R WCI  30
OAK RIDGE        N/A     42  26  53 SW3       29.89R
CROSSVILLE     CLEAR     37  28  70 W7        29.87R WCI  32
NASHVILLE      CLEAR     44  32  62 SW6       29.89R
$$

...KEY TO REMARKS...
VSB - VISIBILITY IN MILES
WCI - WIND CHILL INDEX
HX  - HEAT INDEX

$$


USA.gov is the U.S. government's official web portal to all federal, state and local government web resources and services.